Location: St. Louis
(38.6270°N, 90.1994°W)
Time: 15:25:07
(UTC-05:00)

ISS - Pass Details

Date: 10 April 2014
Orbit: 401 x 404 km, 51.6° (Epoch: 24 July)

Event Time Altitude Azimuth Distance (km) Brightness Sun altitude
Rises 20:11:20 0° 258° (WSW) 2,359 1.7 -8.1°
Reaches altitude 10° 20:13:38 10° 271° (W) 1,497 1.0 -8.5°
Maximum altitude 20:16:33 27° 331° (NNW) 848 -1.1 -9.1°
Drops below altitude 10° 20:19:28 10° 31° (NNE) 1,499 -0.6 -9.6°
Enters shadow 20:22:32 -3° 47° (NE) 2,659 0.5 -10.2°
